Hartford, CT

8:42 AM EST on February 07, 2016 (GMT -0500)
Bradley International

Weather History for KBDL - March, 2014

Change the Weather History Date:

Thursday, March 6, 2014

  Actual Average Record
Temperature  
Mean Temperature 20 °F 34 °F  
Max Temperature 30 °F 44 °F 64 °F (1935)
Min Temperature 9 °F 25 °F -4 °F (1948)
Degree Days  
Heating Degree Days 45 31  
Month to date heating degree days 264 188  
Since 1 July heating degree days 4943 4626  
Cooling Degree Days 0 0  
Month to date cooling degree days 0 0  
Year to date cooling degree days 0 0  
Moisture  
Dew Point -4 °F    
Average Humidity 41    
Maximum Humidity 61    
Minimum Humidity 21    
Precipitation  
Precipitation 0.00 in 0.11 in 2.48 in (1979)
Month to date precipitation T 0.66  
Year to date precipitation 7.37 6.78  
Snow  
Snow 0.00 in 0.30 in 9.40 in (2001)
Month to date snowfall T 1.6  
Since 1 July snowfall 50.1 34.3  
Snow Depth 10.00 in    
Sea Level Pressure  
Sea Level Pressure 30.58 in    
Wind  
Wind Speed 6 mph (NNE)    
Max Wind Speed 18 mph    
Max Gust Speed 22 mph    
Visibility 10 miles    
Events      
T = Trace of Precipitation, MM = Missing Value Source: NWS Daily Summary

Daily Weather History Graph

Daily Weather History Graph

Search for Another Location

Airport or City:

Trip Planner

Search our weather history database for the weather conditions in past years. The results will help you decide how hot, cold, wet, or windy it might be!

Date:

Astronomy

Mar. 06, 2014 Rise Set
Actual Time 6:17 AM EST 5:46 PM EST
Civil Twilight 5:49 AM EST 6:14 PM EST
Nautical Twilight 5:17 AM EST 6:47 PM EST
Astronomical Twilight 4:45 AM EST 7:19 PM EST
Moon 9:18 AM EST (3/6) 11:56 PM EST (3/6)
Length of Visible Light 12h 24m
Length of Day
11h 29m
Waxing Crescent, 32% of the Moon is Illuminated
Mar 6
Waxing Crescent
Mar 8
First Quarter
Mar 16
Full
Mar 23
Last Quarter
Mar 30
New

Hourly Weather History & Observations

Time (EST) Temp. Windchill Dew Point Humidity Pressure Visibility Wind Dir Wind Speed Gust Speed Precip Events Conditions
12:51 AM 16.0 °F 2.3 °F 3.0 °F 57% 30.52 in 10.0 mi North 12.7 mph - N/A   Clear
1:51 AM 15.1 °F 1.1 °F 3.0 °F 59% 30.53 in 10.0 mi North 12.7 mph - N/A   Clear
2:51 AM 12.9 °F -0.9 °F -0.0 °F 56% 30.55 in 10.0 mi North 11.5 mph - N/A   Clear
3:51 AM 12.0 °F -5.1 °F -2.9 °F 51% 30.55 in 10.0 mi North 17.3 mph - N/A   Clear
4:51 AM 10.0 °F -3.7 °F -5.1 °F 51% 30.57 in 10.0 mi North 10.4 mph - N/A   Clear
5:51 AM 10.0 °F -4.5 °F -8.0 °F 44% 30.60 in 10.0 mi North 11.5 mph - N/A   Partly Cloudy
6:51 AM 9.0 °F -5.1 °F -9.9 °F 42% 30.61 in 10.0 mi North 10.4 mph - N/A   Partly Cloudy
7:51 AM 10.9 °F -3.4 °F -9.9 °F 39% 30.64 in 10.0 mi NNE 11.5 mph - N/A   Partly Cloudy
8:51 AM 12.9 °F -2.2 °F -9.0 °F 37% 30.66 in 10.0 mi North 13.8 mph - N/A   Partly Cloudy
9:51 AM 15.1 °F 2.5 °F -8.0 °F 36% 30.65 in 10.0 mi North 10.4 mph - N/A   Partly Cloudy
10:51 AM 18.0 °F 8.7 °F -7.1 °F 33% 30.65 in 10.0 mi NNE 6.9 mph - N/A   Partly Cloudy
11:51 AM 21.0 °F 13.4 °F -5.1 °F 32% 30.63 in 10.0 mi ENE 5.8 mph - N/A   Partly Cloudy
12:51 PM 23.0 °F 17.0 °F -4.0 °F 31% 30.61 in 10.0 mi NE 4.6 mph - N/A   Partly Cloudy
1:51 PM 26.1 °F - -7.1 °F 23% 30.58 in 10.0 mi Calm Calm - N/A   Partly Cloudy
2:51 PM 27.0 °F 23.0 °F -6.0 °F 24% 30.56 in 10.0 mi Variable 3.5 mph - N/A   Partly Cloudy
3:51 PM 27.0 °F - -5.1 °F 25% 30.54 in 10.0 mi Calm Calm - N/A   Partly Cloudy
4:51 PM 28.9 °F - -7.1 °F 21% 30.54 in 10.0 mi Calm Calm - N/A   Partly Cloudy
5:51 PM 27.0 °F - -7.1 °F 23% 30.55 in 10.0 mi Calm Calm - N/A   Partly Cloudy
6:51 PM 26.1 °F - -4.0 °F 27% 30.56 in 10.0 mi Calm Calm - N/A   Scattered Clouds
7:51 PM 19.0 °F - -0.0 °F 43% 30.56 in 10.0 mi Calm Calm - N/A   Scattered Clouds
8:51 PM 19.0 °F 13.9 °F -2.0 °F 40% 30.56 in 10.0 mi SSE 3.5 mph - N/A   Scattered Clouds
9:51 PM 19.9 °F 14.9 °F 3.0 °F 48% 30.55 in 10.0 mi SSE 3.5 mph - N/A   Scattered Clouds
10:51 PM 12.9 °F - 1.9 °F 62% 30.52 in 10.0 mi Calm Calm - N/A   Scattered Clouds
11:51 PM 10.9 °F - -0.0 °F 61% 30.52 in 10.0 mi Calm Calm - N/A   Scattered Clouds